Torna al catalogo

SHIYAN 29

AttivoScienzaGEO
NORAD 65486·PAYLOAD·🇨🇳 China

Lanciato Sep 5, 2025 da Xichang Satellite Launch Center

Loading…

TLE

AggiornatoSource: Space-Track

Epoca: Sep 13, 2026, 20:21 UTC

1 65486U 25196A   26256.84832145 -.00000277  00000-0  00000-0 0  9995
2 65486  28.9157  17.4204 0015373 176.6932 198.6214  1.00288147  3773

Traccia SHIYAN 29 in tempo reale con AllMySat

Download on the App Store